Location: Gatwick
(51.1667°N, 0.1833°W)
Time: 12:13:37
(UTC+00:00)

Daily predictions for brighter satellites

Satellite Brightness Start Highest point End
(mag) Time Altitude Azimuth Time Altitude Azimuth Time Altitude Azimuth
Cosmos 2279 Rocket 4.3 16:25:53 10° N 16:31:55 47° ENE 16:37:52 10° SE
Meteor 1-27 4.3 16:28:42 10° S 16:34:14 59° E 16:39:44 10° NNE
Spot 4 Rocket 4.3 16:30:08 10° S 16:35:15 76° WSW 16:40:26 10° NNW
ATLAS CENTAUR R/B 2.3 16:33:26 10° NW 16:36:49 54° NNE 16:43:07 10° ESE
Cosmos 1606 2.5 16:34:05 10° S 16:37:42 74° E 16:41:22 10° NNE
Cosmos 2237 Rocket 3.6 16:32:26 10° NW 16:37:45 44° WSW 16:43:02 10° S
Cosmos 2058 Rocket 3.9 16:35:46 10° SSE 16:39:39 31° E 16:43:33 10° NNE
Cosmos 405 Rocket 3.2 16:42:58 10° SSE 16:46:30 38° E 16:50:06 10° NNE
Cosmos 2150 Rocket 4.0 16:42:57 10° SSW 16:48:07 88° ESE 16:53:22 10° NNE
Cosmos 1140 Rocket 4.3 16:43:40 10° N 16:48:10 28° NE 16:52:37 10° ESE
USA 306 1.1 16:49:34 10° WNW 16:51:51 72° NNE 16:54:00 10° ESE
Cosmos 1606 Rocket 3.6 16:48:06 10° S 16:52:33 90° W 16:57:02 10° N
SJ-7 4.3 16:49:40 10° SSE 16:53:38 75° ENE 16:57:40 10° N
SMAP 3.1 16:49:52 10° SSE 16:54:25 56° ENE 16:59:00 10° N
Cosmos 1726 Rocket 3.5 16:50:16 10° S 16:54:42 74° E 16:59:08 10° NNE
Cosmos 1500 3.3 16:54:35 10° N 16:58:00 43° ENE 17:01:23 10° SSE
Cosmos 1825 Rocket 4.4 16:57:28 10° NNW 17:01:41 53° W 17:05:52 10° S
Cosmos-2242 4.4 16:59:04 10° SE 17:02:13 20° E 17:05:03 11° NE
Cosmos 1437 Rocket 2.5 16:58:32 10° N 17:02:15 77° ENE 17:05:59 10° SSE
CZ-2D R/B 3.4 16:58:58 10° S 17:02:39 74° WSW 17:06:20 10° NNW
SL-8 R/B 4.1 17:02:17 10° W 17:06:59 61° S 17:11:43 10° ESE
Cosmos 2263 Rocket 2.8 17:02:28 10° S 17:07:32 37° ESE 17:12:14 12° NE
RESURS DK-1 4.3 17:07:06 10° N 17:08:46 12° NNE 17:09:17 12° NE
Tsikada Rocket 4.3 17:03:17 10° SSW 17:09:30 70° WNW 17:15:42 10° N
Cosmos 2151 2.9 17:05:36 10° N 17:09:53 83° ENE 17:14:10 10° SSE
Cosmos 2227 Rocket 2.3 17:04:21 10° SSW 17:10:01 84° WNW 17:15:43 10° NNE
Cosmos 2298 Rocket 4.5 17:05:37 10° SW 17:10:53 64° WNW 17:16:12 10° NNE
CZ-2C R/B 2.9 17:09:48 10° S 17:13:20 70° WSW 17:16:57 10° NNW
Cosmos 1238 Rocket 3.6 17:11:35 10° SSW 17:15:13 46° WNW 17:18:24 10° N
CORIOLIS 4.1 17:12:25 10° SSE 17:17:46 87° ENE 17:23:11 10° NNW
Helios 1B rocket 3.6 17:14:30 10° S 17:18:17 45° W 17:22:05 10° NNW
Cosmos 1603 4.1 17:13:16 10° NNW 17:18:38 40° NE 17:23:56 10° ESE
YAOGAN 1 3.9 17:19:24 18° ENE 17:19:38 18° ENE 17:22:35 10° NNE
Cosmos 2251 Rocket 4.0 17:15:25 10° NNW 17:20:25 39° NE 17:25:26 10° SE
CZ-4B R/B 3.5 17:17:12 10° SSE 17:20:46 83° ENE 17:24:25 10° NNW
Cosmos 1812 3.7 17:18:27 10° SE 17:21:25 23° E 17:22:20 21° ENE
CZ-4B R/B 3.5 17:18:53 10° SE 17:23:51 55° ENE 17:28:42 10° N
SL-16 R/B 4.3 17:18:48 10° N 17:23:55 27° NW 17:29:02 10° WSW
Cosmos 407 Rocket 3.9 17:20:16 10° NNW 17:25:08 38° NE 17:29:55 10° SE
ATLAS 2AS CENTAUR R/B 3.3 17:19:10 10° NW 17:25:47 39° NNE 17:30:16 18° E
USA 305 2.5 17:22:10 10° WNW 17:25:59 77° NNE 17:28:38 19° ESE
Meteor 1-31 Rocket 2.7 17:26:20 10° S 17:30:01 79° WSW 17:33:46 10° NNW
Lacrosse 4 Rocket 1.6 17:26:24 10° NNW 17:30:41 49° NE 17:34:32 12° ESE
Cosmos 724 4.5 17:24:43 10° SSW 17:30:49 64° SE 17:35:29 18° NE
SL-16 R/B 3.2 17:26:30 10° NW 17:32:00 51° WSW 17:37:27 10° S
Cosmos 1544 4.3 17:33:55 10° NNW 17:37:00 39° W 17:40:03 10° SSW
Cosmos 1076 Rocket 4.4 17:41:34 10° NNW 17:45:49 53° W 17:50:04 10° S
Cosmos 1943 3.1 17:40:30 10° NNW 17:46:10 76° ENE 17:51:48 10° SE
Cosmos 1607 4.0 17:43:15 10° SW 17:49:37 87° NW 17:54:20 20° NE
Cosmos 1812 Rocket 3.8 17:46:23 10° SSE 17:50:30 44° E 17:52:19 28° NE
Radarsat Rocket 3.8 17:48:06 10° SSE 17:53:54 77° ENE 18:00:00 10° NNW
Cosmos 1190 Rocket 4.4 17:49:04 10° NNW 17:54:05 40° NE 17:56:11 28° ESE
SL-08 R/B 3.8 17:54:02 33° E 17:54:33 34° E 17:58:46 10° SSE
Cosmos 1602 4.0 17:53:57 10° NNW 17:57:39 63° W 18:01:20 10° S
ADEOS 3.5 17:53:22 10° SSE 17:58:29 59° ENE 18:03:37 10° N
Cosmos 2297 Rocket 3.8 17:53:52 10° WSW 17:58:47 29° NW 18:03:43 10° NNE
Cosmos 2219 3.7 17:54:50 10° SW 18:00:23 59° NW 18:05:03 15° NNE
USA 307 3.0 17:57:47 10° WNW 18:01:36 60° SSW 18:03:12 31° SE
Cosmos 1666 3.7 17:58:31 10° NNW 18:01:54 43° W 18:05:15 10° SSW
ADEOS Rocket 4.3 18:05:29 19° NNE 18:05:29 19° NNE 18:08:01 10° N
Cosmos 1023 Rocket 4.4 17:58:49 10° NNW 18:04:01 85° WSW 18:09:08 10° SSE
Meteor 1-25 Rocket 4.1 18:00:06 10° N 18:05:51 80° ENE 18:11:27 10° SSE
ISS -2.0 18:03:50 10° W 18:06:49 30° SSW 18:08:24 20° SSE
USA 234 3.2 18:03:40 29° ENE 18:07:13 72° SE 18:13:45 10° SW
Cosmos 1553 Rocket 4.4 18:02:18 10° N 18:08:13 39° ENE 18:10:27 29° ESE
BREEZE-M DEB (TANK) 2.9 18:09:47 10° WSW 18:10:54 29° SW 18:10:54 29° SW
Cosmos 2344 3.6 18:06:01 10° SSW 18:13:13 50° ESE 18:16:07 33° ENE
COSMO-SKYMED 1 2.4 18:11:55 38° NNE 18:13:30 69° ESE 18:17:49 10° S
Cosmos 2082 4.0 18:12:02 10° SW 18:17:38 66° WNW 18:21:20 22° NNE
Cosmos 2026 Rocket 3.9 18:16:54 10° S 18:23:02 63° E 18:29:18 10° NNE
Helios 1A 3.3 18:20:32 22° N 18:23:07 64° WNW 18:27:13 10° SSW
Cosmos 1833 Rocket 4.2 18:19:16 10° NNW 18:22:32 21° NNE 18:22:32 21° NNE
Lacrosse 5 3.5 18:22:32 10° S 18:24:55 20° SSE 18:24:55 20° SSE
Cosmos 2195 Rocket 4.4 18:22:53 10° S 18:29:12 80° E 18:35:30 10° NNE
Cosmos 1140 Rocket 4.1 18:25:11 10° NNW 18:30:16 56° WSW 18:35:17 10° S
SME Rocket 4.2 18:27:08 10° SSE 18:32:40 78° ENE 18:41:21 10° NNW
CZ-4B R/B 3.0 18:34:38 71° N 18:34:38 71° N 18:38:28 10° NNW
Cosmos 1092 Rocket 3.8 18:30:12 10° S 18:36:20 79° E 18:42:29 10° NNE
Cosmos-2242 3.8 18:35:01 10° SSW 18:39:15 50° WNW 18:41:45 23° N
Nadezhda 4 Rocket 4.5 18:33:50 10° SSW 18:39:53 59° WNW 18:45:57 10° N
CZ-4B R/B 4.0 18:42:41 36° NNE 18:42:41 36° NNE 18:46:19 10° N
ATLAS CENTAUR R/B 3.7 18:37:16 10° WNW 18:41:45 47° SW 18:50:08 10° SSE
Meteor 1-5 Rocket 4.1 18:41:42 10° NNW 18:47:22 86° ENE 18:53:11 10° SSE
Cosmos 676 Rocket 4.4 18:42:06 10° NNW 18:46:17 50° N 18:46:17 50° N
RESURS DK-1 4.3 18:43:33 10° NNW 18:44:58 20° NNW 18:44:58 20° NNW
Cosmos 2227 4.1 18:43:22 10° SSW 18:49:08 89° ESE 18:50:09 63° NNE
Cosmos 2263 Rocket 3.0 18:46:03 10° SW 18:51:23 46° NW 18:53:56 28° N
Cosmos 1844 Rocket 3.5 18:47:11 10° S 18:50:37 36° SSE 18:50:37 36° SSE
Cosmos 2082 Rocket 4.2 18:50:37 10° N 18:52:13 14° N 18:52:13 14° N
Cosmos 2227 Rocket 4.1 18:50:30 10° W 18:54:56 23° NW 18:58:05 15° N
YAOGAN 1 3.4 18:56:27 43° NW 18:56:27 43° NW 18:59:31 10° NNW
Cosmos 1812 4.4 18:53:08 10° SW 18:56:26 30° WNW 18:56:48 30° WNW
USA 305 4.4 18:57:13 10° WNW 18:59:56 29° WSW 18:59:56 29° WSW
Lacrosse 4 Rocket 3.5 19:05:15 10° NW 19:08:51 26° WSW 19:10:41 19° SSW
ATLAS 2AS CENTAUR R/B 2.5 19:10:24 10° NW 19:17:23 84° SW 19:17:44 80° S
Cosmos 1818 4.3 19:17:13 10° SW 19:21:04 48° SW 19:21:04 48° SW
USA 234 3.6 19:51:01 58° NW 19:51:01 58° NW 19:56:39 10° W
Cosmos 2344 4.2 20:20:29 10° WSW 20:26:10 46° WNW 20:26:10 46° WNW
